Weather History for KMGW - December, 2008

Change the Weather History Date:

Thursday, December 4, 2008

  Actual Average Record
Temperature  
Mean Temperature 40 °F 38 °F  
Max Temperature 51 °F 46 °F 69 °F (2012)
Min Temperature 29 °F 30 °F 3 °F (1966)
Degree Days  
Heating Degree Days 25 27  
Month to date heating degree days 112 106  
Since 1 July heating degree days 1216 1154  
Cooling Degree Days 0 0  
Month to date cooling degree days 0 0  
Year to date cooling degree days 738 814  
Moisture  
Dew Point 33 °F    
Average Humidity 71    
Maximum Humidity 92    
Minimum Humidity 49    
Precipitation  
Precipitation 0.14 in 0.10 in 0.67 in (1968)
Month to date precipitation 0.15 0.41  
Year to date precipitation 40.79 39.33  
Snow  
Snow 0.00 in - - ()
Month to date snowfall 0.0  
Snow Depth 0.00 in    
Sea Level Pressure  
Sea Level Pressure 30.15 in    
Wind  
Wind Speed 7 mph (WSW)    
Max Wind Speed 20 mph    
Max Gust Speed 31 mph    
Visibility 8 miles    
Events Rain , Snow    
T = Trace of Precipitation, MM = Missing Value Source: NWS Daily Summary

Daily Weather History Graph

Daily Weather History Graph

Search for Another Location

Airport or City:

Trip Planner

Search our weather history database for the weather conditions in past years. The results will help you decide how hot, cold, wet, or windy it might be!

Date:

Astronomy

Dec. 04, 2008 Rise Set
Actual Time 7:24 AM EST 4:55 PM EST
Civil Twilight 6:54 AM EST 5:25 PM EST
Nautical Twilight 6:21 AM EST 5:58 PM EST
Astronomical Twilight 5:48 AM EST 6:31 PM EST
Moon 12:02 PM EST (12/4) 11:20 PM EST (12/4)
Length of Visible Light 10h 30m
Length of Day
9h 30m
Waxing Crescent, 38% of the Moon is Illuminated
Dec 4
Waxing Crescent
Dec 5
First Quarter
Dec 12
Full
Dec 19
Last Quarter
Dec 27
New

Hourly Weather History & Observations

Time (EST) Temp. Windchill Dew Point Humidity Pressure Visibility Wind Dir Wind Speed Gust Speed Precip Events Conditions
12:53 AM 50.0 °F - 32.0 °F 50% 30.00 in 10.0 mi South 5.8 mph - N/A   Overcast
1:53 AM 50.0 °F - 32.0 °F 50% 30.00 in 10.0 mi SW 5.8 mph - N/A   Overcast
3:53 AM 50.0 °F - 35.1 °F 57% 30.02 in 10.0 mi SSW 8.1 mph 17.3 mph N/A   Overcast
4:53 AM 48.0 °F - 37.0 °F 66% 30.02 in 10.0 mi SW 10.4 mph 26.5 mph 0.01 in Rain Light Rain
5:53 AM 46.0 °F 41.4 °F 37.9 °F 73% 30.04 in 10.0 mi SSW 9.2 mph 19.6 mph 0.00 in   Overcast
6:53 AM 46.0 °F 39.9 °F 39.9 °F 79% 30.06 in 10.0 mi SW 13.8 mph 20.7 mph 0.01 in Rain Light Rain
7:53 AM 45.0 °F 40.6 °F 39.9 °F 82% 30.07 in 8.0 mi SW 8.1 mph 17.3 mph 0.02 in Rain Light Rain
8:53 AM 44.1 °F 40.1 °F 39.0 °F 82% 30.09 in 10.0 mi SW 6.9 mph - 0.01 in Rain Light Rain
9:53 AM 44.1 °F 39.0 °F 39.9 °F 85% 30.11 in 10.0 mi SW 9.2 mph - 0.01 in Rain Light Rain
10:43 AM 39.2 °F 35.0 °F 37.4 °F 93% 30.13 in 4.0 mi NW 5.8 mph - 0.02 in Rain Light Rain
10:51 AM 39.2 °F 35.9 °F 37.4 °F 93% 30.14 in 5.0 mi Variable 4.6 mph - 0.03 in Rain Light Rain
10:53 AM 39.0 °F 35.7 °F 37.0 °F 93% 30.16 in 5.0 mi NW 4.6 mph - 0.03 in Rain Light Rain
11:12 AM 39.2 °F 34.2 °F 35.6 °F 87% 30.13 in 8.0 mi Variable 6.9 mph - 0.01 in Rain Light Rain
11:53 AM 37.9 °F 35.5 °F 35.1 °F 89% 30.16 in 9.0 mi Variable 3.5 mph - 0.01 in   Overcast
12:10 PM 37.4 °F 32.1 °F 33.8 °F 87% 30.14 in 6.0 mi Variable 6.9 mph - 0.00 in Rain Light Rain
12:44 PM 37.4 °F 34.9 °F 33.8 °F 87% 30.13 in 5.0 mi Variable 3.5 mph - 0.01 in Rain Light Rain
12:53 PM 36.0 °F - 34.0 °F 93% 30.15 in 4.0 mi Calm Calm - 0.02 in Rain Light Rain
1:23 PM 35.6 °F 32.8 °F 35.6 °F 100% 30.14 in 5.0 mi Variable 3.5 mph - 0.00 in   Overcast
1:53 PM 36.0 °F 33.3 °F 34.0 °F 93% 30.16 in 9.0 mi WNW 3.5 mph - 0.01 in   Overcast
2:36 PM 35.6 °F 32.8 °F 33.8 °F 93% 30.14 in 5.0 mi Variable 3.5 mph - 0.00 in Snow Light Snow
2:53 PM 36.0 °F - 33.1 °F 89% 30.16 in 7.0 mi Calm Calm - 0.01 in   Overcast
3:04 PM 35.6 °F 31.7 °F 33.8 °F 93% 30.15 in 6.0 mi WNW 4.6 mph - 0.00 in Snow Light Snow
3:16 PM 35.6 °F 30.7 °F 33.8 °F 93% 30.15 in 7.0 mi West 5.8 mph - 0.00 in Snow Light Snow
3:31 PM 35.6 °F 32.8 °F 32.0 °F 87% 30.16 in 9.0 mi WNW 3.5 mph - 0.00 in Snow Light Snow
3:53 PM 36.0 °F - 32.0 °F 86% 30.18 in 9.0 mi Calm Calm - 0.00 in Snow Light Snow
3:57 PM 35.6 °F 32.8 °F 32.0 °F 87% 30.16 in 9.0 mi West 3.5 mph - 0.00 in   Overcast
4:35 PM 35.6 °F 28.6 °F 32.0 °F 87% 30.18 in 10.0 mi WSW 9.2 mph - 0.00 in   Overcast
4:53 PM 35.1 °F 27.9 °F 30.9 °F 85% 30.21 in 10.0 mi WSW 9.2 mph - 0.00 in   Overcast
5:00 PM 35.6 °F 28.6 °F 30.2 °F 81% 30.19 in 10.0 mi West 9.2 mph - N/A   Overcast
5:53 PM 35.1 °F 28.6 °F 30.9 °F 85% 30.24 in 10.0 mi West 8.1 mph - N/A   Overcast
6:53 PM 34.0 °F 31.0 °F 28.9 °F 82% 30.26 in 10.0 mi WSW 3.5 mph - N/A   Overcast
7:53 PM 33.1 °F 30.0 °F 24.1 °F 70% 30.28 in 10.0 mi Variable 3.5 mph - N/A   Mostly Cloudy
8:53 PM 33.1 °F 26.1 °F 24.1 °F 70% 30.29 in 10.0 mi West 8.1 mph - N/A   Overcast
9:53 PM 30.9 °F 21.7 °F 24.1 °F 76% 30.30 in 10.0 mi West 11.5 mph - N/A   Mostly Cloudy
10:53 PM 28.9 °F 20.4 °F 21.9 °F 75% 30.31 in 10.0 mi WNW 9.2 mph - N/A   Mostly Cloudy
11:53 PM 28.9 °F 22.8 °F 21.0 °F 72% 30.32 in 10.0 mi WNW 5.8 mph - N/A   Overcast